Zurück zum Katalog

COSMOS 2251 DEB

AktivLEO
NORAD 35793·DEBRIS·🇷🇺 Russia

Gestartet Jun 16, 1993 von Plesetsk Cosmodrome

Loading…

Nächste Überflüge (nächste 24 Stunden)

TLE

AktuellSource: Space-Track

Epoche: Sep 13, 2026, 08:24 UTC

1 35793U 93036ASP 26256.35033774  .00007763  00000-0  90982-3 0  9995
2 35793  74.0371 237.3405 0008622 257.3329 173.6904 14.85124041698669

Verfolge COSMOS 2251 DEB in Echtzeit mit AllMySat

Download on the App Store